1293494434504,3.01336
1293494494504,2.99729
1293494554504,2.96896
1293494614504,2.94738
1293494674504,2.95572
1293494734504,2.97195
1293494794504,2.93617
1293494854504,2.97399
1293494914504,2.95978
1293494974504,3.03227
1293495034504,3.00840
1293495094504,2.99801
1293495154504,3.01894
1293495214504,3.00201
1293495274504,2.99719
1293495334504,2.96787
1293495394504,2.99095
1293495454504,2.95355
1293495514504,2.99409
1293495574504,2.97320
1293495634504,2.94111
1293495694504,2.97161
1293495754504,2.96094
1293495814504,2.99642
1293495874504,2.97197
1293495934504,3.01710
1293495994504,2.98105
1293496054504,2.98833
1293496114504,2.96237
1293496174504,2.96673
1293496234504,2.97335
1293496294504,3.00819
1293496354504,2.98104
1293496414504,2.98208
1293496474504,2.99863
1293496534504,2.95238
1293496594504,2.99943
1293496654504,3.00079
1293496714504,3.06080
1293496774504,2.96752
1293496834504,2.99546
1293496894504,3.02336
1293496954504,2.99237
1293497014504,2.98911
1293497074504,2.98105
1293497134504,2.94851
1293497194504,2.96982
1293497254504,3.01398
1293497314504,2.97951
1293497374504,2.97157
1293497434504,2.98041
1293497494504,3.02230
1293497554504,2.99318
1293497614504,2.98562
1293497674504,2.98992
1293497734504,2.99163
1293497794504,3.00724
1293497854504,2.97013
1293497914504,2.96241
1293497974504,3.01246
1293498034515,2.99105
1293498094515,2.96216
1293498154515,2.95561
1293498214515,2.97347
1293498274515,2.98086
1293498334515,2.98236
1293498394515,2.99375
1293498454515,2.96054
1293498514515,2.98292
1293498574515,2.98753
1293498634515,2.95331
1293498694515,2.98316
1293498754515,2.97597
1293498814515,2.97479
1293498874515,2.98702
1293498934515,2.95802
1293498994515,2.97933
1293499054515,2.98349
1293499114515,2.98692
1293499174515,2.97927
1293499234515,3.03283
1293499294515,2.95921
1293499354515,2.98579
1293499414515,3.01548
1293499474515,2.96425
1293499534515,2.99551
1293499594515,3.02597
1293499654515,3.00869
1293499714515,3.01954
1293499774515,2.94849
1293499834515,2.99857
1293499894515,2.95625
1293499954515,2.93582
1293500014515,2.99004
1293500074515,2.99823
1293500134515,2.97744
1293500194515,2.97675
1293500254515,3.03330
1293500314515,2.98973
1293500374515,3.00448
1293500434515,2.96946
1293500494515,2.96037
1293500554515,2.97479
1293500614515,2.96817
1293500674515,2.96710
1293500734515,2.97500
1293500794515,2.98556
1293500854515,3.01138
1293500914515,2.99160
1293500974515,2.96062
1293501034515,2.96091
1293501094515,2.97438
1293501154515,2.98411
1293501214515,2.99494
1293501274515,2.98222
1293501334515,2.97391
1293501394515,3.01328
1293501454515,2.95332
1293501514515,2.98197
1293501574515,2.96500
1293501634526,2.95555
1293501694526,2.96873
1293501754526,3.02048
1293501814526,3.00875
1293501874526,3.05285
1293501934526,2.97933
1293501994526,2.94772
1293502054526,3.01418
1293502114526,3.00168
1293502174526,2.99564
1293502234526,3.02121
1293502294526,3.00873
1293502354526,2.98866
1293502414526,2.98895
1293502474526,3.00019
1293502534526,2.98535
1293502594526,3.00019
1293502654526,3.01488
1293502714526,2.99134
1293502774526,2.96575
1293502834526,2.98889
1293502894526,3.02906
1293502954526,2.97184
1293503014526,2.95965
1293503074526,2.96201
1293503134526,2.96901
1293503194526,2.94533
1293503254526,2.99559
1293503314526,2.99220
1293503374526,2.97328
1293503434526,2.95808
1293503494526,3.00552
1293503554526,2.99522
1293503614526,2.99609
1293503674526,2.97528
1293503734526,3.00365
1293503794526,2.99379
1293503854526,3.00882
1293503914526,2.97355
1293503974526,3.01795
1293504034526,2.98048
1293504094526,2.98632
1293504154526,2.96454
1293504214526,2.96158
1293504274526,3.04087
1293504334526,3.03432
1293504394526,2.99407
1293504454526,3.00424
1293504514526,2.99280
1293504574526,2.96693
1293504634526,3.01836
1293504694526,2.96183
1293504754526,2.96128
1293504814526,3.00542
1293504874526,2.98411
1293504934526,2.98004
1293504994526,2.97044
1293505054526,2.97487
1293505114526,2.95189
1293505174526,2.98995
1293505234537,2.97217
1293505294537,2.98269
1293505354537,2.99375
1293505414537,2.97612
1293505474537,3.01709
1293505534537,2.96556
1293505594537,2.98618
1293505654537,2.98308
1293505714537,3.00895
1293505774537,2.97534
1293505834537,2.97346
1293505894537,2.98353
1293506434537,3.00937
1293506494537,3.01977
1293506554537,3.03311
1293506614537,2.99469
1293506674537,2.97218
1293506734537,2.92977
1293506794537,2.97960
1293506854537,2.97309
1293506914537,2.95598
1293506974537,2.98165
1293507034537,2.90923
1293507094537,3.01422
1293507154537,2.95230
1293507214537,2.97362
1293507274537,3.01897
1293507334537,3.01409
1293507394537,2.98448
1293507454537,2.98810
1293507514537,2.97029
1293507574537,2.96024
1293507634537,2.99928
1293507694537,3.02352
1293507754537,3.02056
1293507814537,2.94761
1293507874537,2.97115
1293507934537,2.97000
1293507994537,2.99616
1293508054537,3.00381
1293508114537,3.00714
1293508174537,3.03169
1293508234537,3.05558
1293508294537,2.98056
1293508354537,3.01914
1293508414537,2.98761
1293508474537,3.00238
1293508534537,2.96258
1293508594537,2.97748
1293508654537,3.02681
1293508714537,3.02713
1293508774537,3.00516
1293508834548,2.96895
1293508894548,3.02028
1293508954548,2.96127
1293509014548,2.98601
1293509074548,3.01161
1293509134548,3.00189
1293509194548,3.00793
1293509254548,2.96061
1293509314548,2.96753
1293509374548,2.99498
1293509434548,2.97805
1293509494548,2.97019
1293509554548,2.96115
1293509614548,2.95765
1293509674548,3.00046
1293509734548,2.98855
1293509794548,3.02284
1293509854548,3.01969
1293509914548,3.02829
1293509974548,3.00757
1293510034548,3.03391
1293510094548,2.98869
1293510154548,2.98883
1293510214548,3.02454
1293510274548,2.98634
1293510334548,3.01187
1293510394548,3.01224
1293510454548,3.00443
1293510514548,3.02251
1293510574548,3.02290
1293510634548,3.03230
1293510694548,2.97392
1293510754548,2.98209
1293510814548,2.98387
1293510874548,2.98233
1293510934548,2.97773
1293510994548,2.97260
1293511054548,3.00671
1293511114548,3.01608
1293511174548,3.03011
1293511234548,2.99795
1293511294548,2.98548
1293511354548,3.02105
1293511414548,2.98538
1293511474548,2.96063
1293511534548,2.95275
1293511594548,2.95757
1293511654548,2.96158
1293511714548,2.96419
1293511774548,3.00529
1293511834548,3.02082
1293511894548,2.99280
1293511954548,2.96335
1293512014548,3.01254
1293512074548,3.01870
1293512134548,3.02928
1293512194548,2.97182
1293512254548,2.99947
1293512314548,2.99225
1293512374548,2.99356
1293512434559,2.99076
1293512494559,2.96872
1293512554559,2.99564
1293512614559,2.97038
1293512674559,2.98463
1293512734559,3.00079
1293512794559,2.99198
1293512854559,2.98669
1293512914559,2.96931
1293512974559,3.01045
1293513034559,3.01824
1293513094559,3.01887
1293513154559,3.01138
1293513214559,2.97493
1293513274559,2.98177
1293513334559,3.01024
1293513394559,3.01902
1293513454559,3.04465
1293513514559,3.04012
1293513574559,3.00992
1293513634559,3.00737
1293513694559,2.97174
1293513754559,2.97404
1293513814559,3.00719
1293513874559,3.00756
1293513934559,2.99746
1293513994559,2.96677
1293514054559,2.97953
1293514114559,3.01534
1293514174559,3.01011
1293514234559,2.97261
1293514294559,3.01301
1293514354559,2.98024
1293514414559,2.99655
1293514474559,2.97425
1293514534559,2.98467
1293514594559,2.98965
1293514654559,3.01878
1293514714559,3.03379
1293514774559,2.99848
1293514834559,2.98009
1293514894559,2.96047
1293514954559,2.96377
1293515014559,2.97762
1293515074559,2.97131
1293515134559,3.00580
1293515194559,3.00252
1293515254559,2.96685
1293515314559,2.96859
1293515374559,3.01336
1293515434559,2.98084
1293515494559,2.97970
1293515554559,3.00559
1293515614559,3.00727
1293515674559,2.98967
1293515734559,2.98876
1293515794559,2.97602
1293515854559,2.98495
1293515914559,3.04878
1293515974559,3.00276
1293516034570,2.95267
1293516094570,3.00090
1293516154570,2.99809
1293516214570,2.97554
1293516274570,2.97156
1293516334570,2.95917
1293516394570,2.99625
1293516454570,2.96105
1293516514570,3.01427
1293516574570,3.02943
1293516634570,2.97977
1293516694570,2.97533
1293516754570,2.99670
1293516814570,3.02724
1293516874570,3.01293
1293516934570,2.97790
1293516994570,2.98094
1293517054570,2.96654
1293517114570,2.96726
1293517174570,3.02272
1293517234570,2.96232
1293517294570,3.02041
1293517354570,2.99423
1293517414570,2.97140
1293517474570,2.98591
1293517534570,3.03807
1293517594570,3.00146
1293517654570,2.98323
1293517714570,2.98764
1293517774570,2.99265
1293517834570,2.96300
1293517894570,3.00360
1293517954570,2.97570
1293518014570,2.97742
1293518074570,2.98230
1293518134570,2.97778
1293518194570,2.96754
1293518254570,3.01026
1293518314570,3.03775
1293518374570,2.99500
1293518434570,2.97641
1293518494570,2.99791
1293518554570,2.97844
1293518614570,2.98254
1293518674570,2.98636
1293518734570,2.99616
1293518794570,2.98386
1293518854570,3.00965
1293518914570,2.99922
1293518974570,3.01393
1293519034570,3.01108
1293519094570,2.95597
1293519154570,2.96950
1293519214570,2.96934
1293519274570,2.97176
1293519334570,2.97323
1293519394570,2.95559
1293519454570,2.98584
1293519514570,2.94219
1293519574570,2.97270
1293519634582,2.98482
1293519694582,3.00983
1293519754582,2.99411
1293519814582,2.96330
1293519874582,2.98650
1293519934582,2.99097
1293519994582,2.98335
1293520054582,2.96258
1293520114582,2.98188
1293520174582,2.96491
1293520234582,3.02409
1293520294582,2.93796
1293520354582,2.97125
1293520414582,2.97501
1293520474582,2.95363
1293520534582,2.99272
1293520594582,2.94920
1293520654582,2.96672
1293520714582,2.93151
1293520774582,2.95202
1293520834582,2.93961
1293520894582,2.96540
1293520954582,3.00113
1293521014582,2.99682
1293521074582,2.97245
1293521134582,2.97215
1293521194582,2.98401
1293521254582,2.96711
1293521314582,2.98597
1293521374582,3.01730
1293521434582,2.99063
1293521494582,3.00547
1293521554582,3.02893
1293521614582,3.00809
1293521674582,3.01232
1293521734582,3.00340
1293521794582,2.97107
1293521854582,2.99743
1293521914582,3.00816
1293521974582,3.02242
1293522034582,2.97907
1293522094582,2.97186
1293522154582,3.01647
1293522214582,2.95865
1293522274582,3.01666
1293522334582,2.98480
1293522394582,2.97699
1293522454582,2.99142
1293522514582,2.99268
1293522574582,2.99508
1293522634582,3.02710
1293522694582,2.98280
1293522754582,2.97305
1293522814582,2.95725
1293522874582,2.99986
1293522934582,3.00072
1293522994582,2.94690
1293523054582,2.98695
1293523114582,2.99140
1293523174582,3.00609
1293523234594,2.98168
1293523294594,2.96435
1293523354594,2.95747
1293523414594,3.00876
1293523474594,3.01105
1293523534594,3.00648
1293523594594,2.99123
1293523654594,2.98881
1293523714594,2.93391
1293523774594,2.96639
1293523834594,2.94641
1293523894594,2.95752
1293523954594,2.96212
1293524014594,2.96127
1293524074594,2.95601
1293524134594,2.97308
1293524194594,2.97148
1293524254594,2.96767
1293524314594,2.97243
1293524374594,2.96637
1293524434594,2.95731
1293524494594,3.00083
1293524554594,2.97578
1293524614594,2.99434
1293524674594,2.96363
1293524734594,2.93742
1293524794594,2.95980
1293524854594,2.94149
1293524914594,2.98778
1293524974594,2.98295
1293525034594,2.95491
1293525094594,2.96031
1293525154594,2.99658
1293525214594,2.95214
1293525274594,3.01674
1293525334594,2.96035
1293525394594,2.94451
1293525454594,2.93745
1293525514594,2.91047
1293525574594,2.97083
1293525634594,2.96106
1293525694594,2.96468
1293525754594,2.95770
1293525814594,2.93727
1293525874594,2.94287
1293525934594,2.95613
1293525994594,2.96892
1293526054594,2.94882
1293526114594,2.98190
1293526174594,2.93555
1293526234594,2.91955
1293526294594,2.93987
1293526354594,3.00387
1293526414594,2.99171
1293526474594,2.93619
1293526534594,2.97605
1293526594594,2.94345
1293526654594,2.94884
1293526714594,2.95655
1293526774594,2.95022
1293526834606,2.95190
1293526894606,2.96216
1293526954606,2.96410
1293527014606,2.94710
1293527074606,2.98439
1293527134606,2.97125
1293527194606,2.97977
1293527254606,2.96327
1293527314606,2.97279
1293527374606,2.95407
1293527434606,2.98723
1293527494606,2.96207
1293527554606,2.92521
1293527614606,2.95453
1293527674606,2.93488
1293527734606,2.96316
1293527794606,2.97864
1293527854606,2.96303
1293527914606,2.99459
1293527974606,2.97050
1293528034606,2.91884
1293528094606,2.95869
1293528154606,2.92917
1293528214606,2.93951
1293528274606,2.96859
1293528334606,2.94496
1293528394606,2.96033
1293528454606,2.96643
1293528514606,2.96858
1293528574606,2.94578
1293528634606,2.97620
1293528694606,2.99709
1293528754606,2.99030
1293528814606,2.96725
1293528874606,2.95116
1293528934606,2.96207
1293528994606,2.96076
1293529054606,2.99691
1293529114606,2.94566
1293529174606,2.96432
1293529234606,2.96504
1293529294606,2.98875
1293529354606,2.97715
1293529414606,2.97146
1293529474606,2.97147
1293529534606,2.94433
1293529594606,2.95981
1293529654606,2.96035
1293529714606,2.96542
1293529774606,2.92782
1293529834606,2.95060
1293529894606,2.97770
1293529954606,2.96605
1293530014606,2.96729
1293530074606,2.98789
1293530134606,2.95517
1293530194606,2.96975
1293530254606,2.98106
1293530314606,2.98052
1293530374606,2.95907
1293530434619,2.97011
1293530494619,2.98986
1293530554619,3.02613
1293530614619,2.96462
1293530674619,2.95209
1293530734619,2.98326
1293530794619,2.94648
1293530854619,2.98528
1293530914619,2.99360
1293530974619,2.95584
1293531034619,2.94040
1293531094619,2.97317
1293531154619,2.95640
1293531214619,2.95557
1293531274619,2.98457
1293531334619,2.98223
1293531394619,2.96941
1293531454619,2.94490
1293531514619,2.95425
1293531574619,2.95332
1293531634619,2.95402
1293531694619,2.94849
1293531754619,2.98630
1293531814619,2.95529
1293531874619,2.94626
1293531934619,3.00971
1293531994619,2.97190
1293532054619,2.99491
1293532114619,3.00539
1293532174619,2.98978
1293532234619,2.98464
1293532294619,2.98762
1293532354619,2.97355
1293532414619,2.96008
1293532474619,2.95297
1293532534619,2.97265
1293532594619,2.94980
1293532654619,2.93063
1293532714619,2.94426
1293532774619,2.97479
1293532834619,2.99958
1293532894619,2.94852
1293532954619,2.91194
1293533014619,2.94639
1293533074619,2.99210
1293533134619,2.97342
1293533194619,2.98953
1293533254619,2.96002
1293533314619,2.95869
1293533374619,3.01288
1293533434619,2.98390
1293533494619,2.95521
1293533554619,2.93327
1293533614619,2.92086
1293533674619,2.97273
1293533734619,2.96124
1293533794619,2.96162
1293533854619,2.98108
1293533914619,2.97374
1293533974619,3.01593
1293534034631,2.98733
1293534094631,2.94511
1293534154631,2.95660
1293534214631,2.99429
1293534274631,3.01284
1293534334631,2.94485
1293534394631,2.97410
1293534454631,2.97768
1293534514631,2.97695
1293534574631,2.94568
1293534634631,2.91912
1293534694631,2.96682
1293534754631,2.98561
1293534814631,2.99113
1293534874631,2.95788
1293534934631,2.99658
1293534994631,3.00468
1293535054631,2.94913
1293535114631,2.98962
1293535174631,3.00108
1293535234631,2.96076
1293535294631,2.96118
1293535354631,2.96423
1293535414631,2.93315
1293535474631,2.91970
1293535534631,2.95851
1293535594631,2.96904
1293535654631,2.99787
1293535714631,2.96163
1293535774631,2.95764
1293535834631,2.98019
1293535894631,2.97136
1293535954631,3.00690
1293536014631,2.99530
1293536074631,2.95202
1293536134631,2.96419
1293536194631,2.95393
1293536254631,2.95868
1293536314631,2.97876
1293536374631,2.96331
1293536434631,2.98925
1293536494631,2.99151
1293536554631,2.97753
1293536614631,2.96493
1293536674631,2.98471
1293536734631,2.98987
1293536794631,2.96601
1293536854631,2.96026
1293536914631,2.96237
1293536974631,2.95823
1293537034631,2.99168
1293537094631,3.00271
1293537154631,2.99004
1293537214631,2.96112
1293537274631,2.95005
1293537334631,2.96215
1293537394631,2.93843
1293537454631,2.96404
1293537514631,2.97846
1293537574631,2.97144
1293537634644,2.95912
1293537694644,2.94412
1293537754644,2.92190
1293537814644,2.93355
1293537874644,2.94798
1293537934644,2.99520
1293537994644,2.98935
1293538054644,2.99992
1293538114644,2.93025
1293538174644,2.95496
1293538234644,2.98175
1293538294644,2.95647
1293538354644,2.92734
1293538414644,2.94253
1293538474644,2.93867
1293538534644,2.96291
1293538594644,2.96251
1293538654644,2.97505
1293538714644,2.96803
1293538774644,2.94521
1293538834644,2.98242
1293538894644,2.99749
1293538954644,2.96228
1293539014644,2.97135
1293539074644,2.97117
1293539134644,2.95837
1293539194644,2.98622
1293539254644,2.98825
1293539314644,2.98883
1293539374644,2.97599
1293539434644,2.99452
1293539494644,2.98867
1293539554644,2.96677
1293539614644,2.96109
1293539674644,2.98293
1293539734644,2.97834
1293539794644,2.99712
1293539854644,3.00108
1293539914644,2.98792
1293539974644,3.01250
1293540034644,3.00816
1293540094644,2.99369
1293540154644,3.00446
1293540214644,2.98945
1293540274644,3.01316
1293540334644,2.98275
1293540394644,2.99365
1293540454644,3.00301
1293540514644,2.93056
1293540574644,2.93806
1293540634644,3.00173
1293540694644,2.97008
1293540754644,2.98430
1293540814644,2.96751
1293540874644,2.93990
1293540934644,2.97160
1293540994644,2.95020
1293541054644,2.99080
1293541114644,3.01526
1293541174644,3.01244
1293541234656,2.95459
1293541294656,3.01653
1293541354656,2.99017
1293541414656,2.97857
1293541474656,2.96155
1293541534656,2.95288
1293541594656,2.94655
1293541654656,2.95831
1293541714656,2.95003
1293541774656,2.98394
1293541834656,2.95957
1293541894656,2.94280
1293541954656,2.95132
1293542014656,3.01708
1293542074656,2.98238
1293542134656,2.95939
1293542194656,2.95321
1293542254656,2.93357
1293542314656,2.93080
1293542374656,2.91709
1293542434656,2.93369
1293542494656,2.96746
1293542554656,2.96596
1293542614656,2.94295
1293542674656,2.95651
1293542734656,2.96982
1293542794656,2.99079
1293542854656,2.92998
1293542914656,2.95058
1293542974656,2.94458
1293543034656,2.93856
1293543094656,2.93939
1293543154656,2.95194
1293543214656,2.94405
1293543274656,2.98275
1293543334656,2.96491
1293543394656,3.00400
1293543454656,2.97268
1293543514656,2.96361
1293543574656,2.97015
1293543634656,2.96923
1293543694656,2.92975
1293543754656,2.95286
1293543814656,2.94806
1293543874656,2.98084
1293543934656,2.98371
1293543994656,2.95812
1293544054656,2.98666
1293544114656,2.98084
1293544174656,2.92848
1293544234656,2.94543
1293544294656,2.93829
1293544354656,2.95243
1293544414656,2.93138
1293544474656,2.92735
1293544534656,2.91387
1293544594656,2.94327
1293544654656,2.95966
1293544714656,2.93685
1293544774656,2.94698
1293544834668,2.94319
1293544894668,2.95560
1293544954668,2.99102
1293545014668,2.98172
1293545074668,2.94527
1293545134668,2.92444
1293545194668,2.95122
1293545254668,2.95468
1293545314668,2.92709
1293545374668,2.93845
1293545434668,2.93935
1293545494668,2.94446
1293545554668,2.96935
1293545614668,2.95038
1293545674668,2.95351
1293545734668,2.92446
1293545794668,2.93108
1293545854668,2.97799
1293545914668,2.93483
1293545974668,2.93230
1293546034668,2.91681
1293546094668,2.95333
1293546154668,2.97246
1293546214668,2.93852
1293546274668,2.95483
1293546334668,2.94097
1293546394668,2.93900
1293546454668,2.92376
1293546514668,2.90792
1293546574668,2.91752
1293546634668,2.91719
1293546694668,2.92329
1293546754668,2.93044
1293546814668,2.94467
1293546874668,2.93135
1293546934668,2.97413
1293546994668,2.98382
1293547054668,2.96606
1293547114668,2.99050
1293547174668,2.99420
1293547234668,2.96333
1293547294668,2.96907
1293547354668,2.97631
1293547414668,2.94807
1293547474668,2.90209
1293547534668,2.88655
1293547594668,2.94595
1293547654668,2.96803
1293547714668,2.99345
1293547774668,2.98016
1293547834668,2.96139
1293547894668,2.99242
1293547954668,2.97140
1293548014668,2.94768
1293548074668,2.95446
1293548134668,2.99094
1293548194668,2.99666
1293548254668,2.99295
1293548314668,3.00565
1293548374668,2.95153
1293548434681,2.94835
1293548494681,2.90747
1293548554681,2.94236
1293548614681,2.96749
1293548674681,2.94046
1293548734681,2.90216
1293548794681,2.94896
1293548854681,2.98434
1293548914681,2.97207
1293548974681,2.96056
1293549034681,2.96422
1293549094681,2.93688
1293549154681,2.94880
1293549214681,2.91713
1293549274681,2.93596
1293549334681,2.92542
1293549394681,2.97149
1293549454681,2.92404
1293549514681,2.98097
1293549574681,2.96083
1293549634681,2.94402
1293549694681,2.94484
1293549754681,2.89622
1293549814681,2.89189
1293549874681,2.94373
1293549934681,2.91995
1293549994681,2.93364
1293550054681,2.91683
1293550114681,2.90865
1293550174681,2.92704
1293550234681,2.95112
1293550294681,2.94586
1293550354681,2.93967
1293550414681,2.91799
1293550474681,2.96435
1293550534681,2.97350
1293550594681,2.95337
1293550654681,2.97686
1293550714681,2.95927
1293550774681,3.01017
1293550834681,2.93039
1293550894681,2.90352
1293550954681,2.92284
1293551014681,2.93992
1293551074681,2.93481
1293551134681,2.91704
1293551194681,2.90991
1293551254681,2.88860
1293551314681,2.92738
1293551374681,2.89525
1293551434681,2.89751
1293551494681,2.91763
1293551554681,2.92491
1293551614681,2.91405
1293551674681,2.92009
1293551734681,2.91440
1293551794681,2.90395
1293551854681,2.90953
1293551914681,2.91403
1293551974681,2.92458
1293552034693,2.94533
1293552094693,2.92614
1293552154693,2.91323
1293552214693,2.91049
1293552274693,2.91369
1293552334693,2.87452
1293552394693,2.94181
1293552454693,2.96737
1293552514693,2.90410
1293552574693,2.89768
1293552634693,2.90172
1293552694693,2.89990
1293552754693,2.95185
1293552814693,2.93450
1293552874693,2.93213
1293552934693,2.91667
1293552994693,2.91917
1293553054693,2.90861
1293553114693,2.90150
1293553174693,2.92320
1293553234693,2.89431
1293553294693,2.88629
1293553354693,2.89562
1293553414693,2.92948
1293553474693,2.91323
1293553534693,2.90074
1293553594693,2.91997
1293553654693,2.95801
1293553714693,2.94297
1293553774693,2.90970
1293553834693,2.92735
1293553894693,2.92371
1293553954693,2.91370
1293554014693,2.91228
1293554074693,2.94381
1293554134693,2.96440
1293554194693,2.95405
1293554254693,2.91157
1293554314693,2.93997
1293554374693,2.91939
1293554434693,2.90850
1293554494693,2.97289
1293554554693,2.94532
1293554614693,2.93181
1293554674693,2.96973
1293554734693,2.92819
1293554794693,2.90477
1293554854693,2.90420
1293554914693,2.89993
1293554974693,2.89039
1293555034693,2.92351
1293555094693,2.90431
1293555154693,2.95420
1293555214693,2.88536
1293555274693,2.90452
1293555334693,2.92241
1293555394693,2.92503
1293555454693,2.94229
1293555514693,2.95532
1293555574693,2.96562
1293555634704,2.94603
1293555694704,2.94328
1293555754704,2.91413
1293555814704,2.92304
1293555874704,2.92870
1293555934704,2.93565
1293555994704,2.92595
1293556054704,2.92784
1293556114704,2.88968
1293556174704,2.92783
1293556234704,2.91258
1293556294704,2.92369
1293556354704,2.92562
1293556414704,2.91714
1293556474704,2.92504
1293556534704,2.87446
1293556594704,2.90428
1293556654704,2.91511
1293556714704,2.90944
1293556774704,2.93705
1293556834704,2.92992
1293556894704,2.90291
1293556954704,2.89890
1293557014704,2.91903
1293557074704,2.98173
1293557134704,2.98891
1293557194704,2.92493
1293557254704,2.95281
1293557314704,2.98258
1293557374704,2.96352
1293557434704,2.94524
1293557494704,2.93828
1293557554704,2.93632
1293557614704,2.92266
1293557674704,2.91080
1293557734704,2.91916
1293557794704,2.90372
1293557854704,2.92834
1293557914704,2.93302
1293557974704,2.92697
1293558034704,2.94563
1293558094704,2.97772
1293558154704,2.95188
1293558214704,2.95420
1293558274704,2.97760
1293558334704,2.95329
1293558394704,2.92327
1293558454704,2.93796
1293558514704,2.93809
1293558574704,2.92268
1293558634704,2.95922
1293558694704,2.93840
1293558754704,2.92065
1293558814704,2.96135
1293558874704,2.98118
1293558934704,2.89809
1293558994704,2.91348
1293559054704,2.94448
1293559114704,2.94220
1293559174704,2.94472
1293559234716,2.94193
1293559294716,2.92004
1293559354716,2.97221
1293559414716,2.95483
1293559474716,2.97148
1293559534716,2.94230
1293559594716,2.93577
1293559654716,2.88549
1293559714716,2.90866
1293559774716,2.90532
1293559834716,2.91224
1293559894716,2.90668
1293559954716,2.95716
1293560014716,2.92758
1293560074716,2.94031
1293560134716,2.97848
1293560194716,2.96782
1293560254716,2.99622